Flag for Luxembourg Weather past 2 weeks in Ettelbruck, Luxembourg

Now
77 °F

Mild.


Feels Like: 79 °F
Forecast: 65 / 90 °F
Wind: 2 mph from East

Location: Luxembourg / Luxembourg

Current Time: Jul 4, 2015 at 4:47:04 AM

Latest Report: Jul 4, 2015 at 4:00 AM


Visibility: 1 mi

Pressure: 30.08 "Hg

Humidity: 63%

Dew point: 63 °F

Location of EttelbruckLocation

Historic Weather in Ettelbruck — Graph

°F

Ettelbruck temperature yesterday

Maximum temperature yesterday: 94 °F (at 6:00 PM)
Minimum temperature yesterday: 69 °F (at 6:00 AM)
Average temperature yesterday: 82 °F

Past Weeks' High & Low Weather Summary

 TemperatureHumidityPressure
High96 °F (Jul 2, 6:00 PM)100% (Jun 21, 6:00 AM)30.24 "Hg (Jun 21, 6:00 AM)
Low44 °F (Jun 23, 3:00 AM)27% (Jun 30, 8:00 PM)29.73 "Hg (Jun 22, 10:00 PM)
Average66 °F63%30.09 "Hg
* Reported Jun 19 3:00 AM — Jul 4 3:00 AM, Ettelbruck, Weather by CustomWeather, © 2015

Note: Actual official high and low records may vary slightly from our data, if they occured in-between our weather recording intervals... More about our weather records

Advertising

Ettelbruck weather history for previous 24 hours

 ConditionsComfort  
Time TempWeatherWind HumidityBarometerVisibility
3:00 AM
Sat, Jul 4
77 °FMild.2 mph65%30.10 "Hg6 mi
2:00 AM78 °FPassing clouds.3 mph63%30.11 "Hg12 mi
1:00 AM81 °FPassing clouds.3 mph57%30.10 "Hg16 mi
12:00 AM82 °FPassing clouds.3 mph54%30.10 "Hg16 mi
11:00 PM
Fri, Jul 3
85 °FPassing clouds.5 mph48%30.10 "Hg16 mi
10:00 PM88 °FPassing clouds.3 mph39%30.10 "Hg19 mi
9:00 PM90 °FPassing clouds.2 mph34%30.09 "Hg19 mi
8:00 PM92 °FPassing clouds.1 mph31%30.09 "Hg19 mi
7:00 PM93 °FPassing clouds.2 mph28%30.10 "Hg19 mi
6:00 PM94 °FPassing clouds.2 mph27%30.10 "Hg22 mi
5:00 PM93 °FPassing clouds.3 mph29%30.12 "Hg22 mi
4:00 PM92 °FScattered clouds.2 mph29%30.14 "Hg22 mi
3:00 PM91 °FPartly sunny.2 mph33%30.15 "Hg9 mi
2:00 PM89 °FPartly sunny.2 mph40%30.17 "Hg9 mi
1:00 PM87 °FPassing clouds.1 mph46%30.19 "Hg9 mi
12:00 PM84 °FPassing clouds.2 mph55%30.20 "Hg9 mi
11:00 AM81 °FPassing clouds.2 mph58%30.21 "Hg9 mi
10:00 AM75 °FSunny.5 mph68%30.22 "Hg9 mi
9:00 AM75 °FSunny.5 mph68%30.22 "Hg9 mi
8:00 AM72 °FSunny.5 mph74%30.23 "Hg9 mi
7:00 AM70 °FPassing clouds.5 mph79%30.22 "Hg9 mi
6:00 AM69 °FSunny.6 mph83%30.21 "Hg9 mi
4:00 AM71 °FMild.3 mph82%30.19 "Hg6 mi
Weather by CustomWeather, © 2015

See weather overviewHow to use our weather pages